When you browse on this site, cookies collect data to enhance your experience and personalize the content and advertising you see.
Visit our Privacy Policy to learn more. By continuing to use the site, you agree to this use of cookies and data.
  • In Germany
  • List of Countries
  • For 7 days
  • Water Temperature
  • Weather Map
  • Weather Widgets
  • user-avatar
    Login

    Hourly Weather Qala i Naw

    Today, 22 September, Sunday

    Time Temperature Precipitation Wind Pressure Humidity
    00:00 +21°C° 0 mm 2 mps 678 mmHg 29%
    01:00 +20°C° 0 mm 2 mps 678 mmHg 29%
    02:00 +21°C° 0 mm 1 mps 678 mmHg 33%
    03:00 +20°C° 0 mm 1 mps 678 mmHg 38%
    04:00 +19°C° 0 mm 1 mps 678 mmHg 41%
    05:00 +22°C° 0 mm 1 mps 679 mmHg 32%
    06:00 +24°C° 0 mm 1 mps 679 mmHg 22%
    07:00 +26°C° 0 mm 1 mps 680 mmHg 13%
    08:00 +29°C° 0 mm 1 mps 681 mmHg 11%
    09:00 +32°C° 0 mm 1 mps 682 mmHg 9%
    10:00 +35°C° 0 mm 1 mps 682 mmHg 7%
    11:00 +37°C° 0 mm 4 mps 682 mmHg 9%
    12:00 +38°C° 0 mm 7 mps 682 mmHg 10%
    13:00 +38°C° 0 mm 10 mps 682 mmHg 12%
    14:00 +37°C° 0 mm 9 mps 682 mmHg 18%
    15:00 +34°C° 0 mm 9 mps 682 mmHg 23%
    16:00 +33°C° 0 mm 8 mps 682 mmHg 29%
    17:00 +30°C° 0 mm 7 mps 683 mmHg 37%
    18:00 +27°C° 0 mm 6 mps 684 mmHg 46%
    19:00 +25°C° 0 mm 5 mps 684 mmHg 54%
    20:00 +22°C° 0 mm 5 mps 685 mmHg 57%
    21:00 +21°C° 0 mm 4 mps 685 mmHg 59%
    22:00 +20°C° 0 mm 4 mps 686 mmHg 62%
    23:00 +19°C° 0 mm 3 mps 686 mmHg 64%

    Tomorrow, 23 September, Monday

    Time Temperature Precipitation Wind Pressure Humidity
    00:00 +18°C° 0 mm 3 mps 686 mmHg 66%
    01:00 +17°C° 0 mm 2 mps 685 mmHg 69%
    02:00 +16°C° 0 mm 1 mps 685 mmHg 73%
    03:00 +15°C° 0 mm 1 mps 684 mmHg 77%
    04:00 +13°C° 0 mm 0 mps 684 mmHg 82%
    05:00 +15°C° 0 mm 1 mps 684 mmHg 76%
    06:00 +16°C° 0 mm 1 mps 684 mmHg 71%
    07:00 +18°C° 0 mm 1 mps 685 mmHg 65%
    08:00 +20°C° 0 mm 1 mps 684 mmHg 59%
    09:00 +21°C° 0 mm 2 mps 684 mmHg 53%
    10:00 +24°C° 0 mm 2 mps 684 mmHg 46%
    11:00 +25°C° 0 mm 3 mps 684 mmHg 41%
    12:00 +27°C° 0 mm 3 mps 683 mmHg 37%
    13:00 +29°C° 0 mm 3 mps 683 mmHg 32%
    14:00 +29°C° 0 mm 4 mps 683 mmHg 31%
    15:00 +29°C° 0 mm 4 mps 682 mmHg 29%
    16:00 +30°C° 0 mm 4 mps 682 mmHg 28%
    17:00 +26°C° 0 mm 3 mps 682 mmHg 38%
    18:00 +23°C° 0 mm 2 mps 681 mmHg 47%
    19:00 +20°C° 0 mm 1 mps 681 mmHg 57%
    20:00 +19°C° 0 mm 1 mps 681 mmHg 58%
    21:00 +19°C° 0 mm 1 mps 681 mmHg 59%
    22:00 +18°C° 0 mm 1 mps 681 mmHg 60%
    23:00 +18°C° 0 mm 1 mps 681 mmHg 63%

    Day after tomorrow, 24 September, Tuesday

    Time Temperature Precipitation Wind Pressure Humidity
    00:00 +15°C° 0 mm 0 mps 680 mmHg 66%
    01:00 +15°C° 0 mm 0 mps 680 mmHg 69%
    02:00 +14°C° 0 mm 0 mps 680 mmHg 70%
    03:00 +14°C° 0 mm 0 mps 680 mmHg 71%
    04:00 +13°C° 0 mm 0 mps 680 mmHg 71%
    05:00 +16°C° 0 mm 0 mps 680 mmHg 61%
    06:00 +18°C° 0 mm 0 mps 681 mmHg 51%
    07:00 +20°C° 0 mm 0 mps 682 mmHg 42%
    08:00 +24°C° 0 mm 1 mps 682 mmHg 37%
    09:00 +26°C° 0 mm 2 mps 683 mmHg 33%
    10:00 +28°C° 0 mm 3 mps 683 mmHg 28%
    11:00 +29°C° 0 mm 3 mps 683 mmHg 26%
    12:00 +32°C° 0 mm 4 mps 682 mmHg 23%
    13:00 +33°C° 0 mm 4 mps 682 mmHg 21%
    14:00 +33°C° 0 mm 4 mps 682 mmHg 20%
    15:00 +33°C° 0 mm 4 mps 682 mmHg 20%
    16:00 +33°C° 0 mm 4 mps 682 mmHg 19%
    17:00 +28°C° 0 mm 3 mps 681 mmHg 25%
    18:00 +25°C° 0 mm 2 mps 681 mmHg 31%
    19:00 +21°C° 0 mm 2 mps 681 mmHg 37%
    20:00 +21°C° 0 mm 1 mps 681 mmHg 38%
    21:00 +20°C° 0 mm 1 mps 681 mmHg 40%
    22:00 +19°C° 0 mm 1 mps 681 mmHg 42%
    23:00 +18°C° 0 mm 1 mps 681 mmHg 43%

    25 September, Wednesday

    Time Temperature Precipitation Wind Pressure Humidity
    00:00 +18°C° 0 mm 1 mps 680 mmHg 44%
    01:00 +16°C° 0 mm 1 mps 680 mmHg 45%
    02:00 +15°C° 0 mm 1 mps 680 mmHg 46%
    03:00 +14°C° 0 mm 0 mps 680 mmHg 48%
    04:00 +13°C° 0 mm 0 mps 680 mmHg 49%
    05:00 +16°C° 0 mm 0 mps 681 mmHg 42%
    06:00 +18°C° 0 mm 0 mps 682 mmHg 35%
    07:00 +20°C° 0 mm 0 mps 682 mmHg 28%
    08:00 +25°C° 0 mm 1 mps 683 mmHg 25%
    09:00 +27°C° 0 mm 1 mps 683 mmHg 22%
    10:00 +29°C° 0 mm 2 mps 683 mmHg 19%
    11:00 +30°C° 0 mm 2 mps 683 mmHg 18%
    12:00 +31°C° 0 mm 3 mps 683 mmHg 17%
    13:00 +34°C° 0 mm 4 mps 682 mmHg 16%
    14:00 +34°C° 0 mm 4 mps 682 mmHg 16%
    15:00 +34°C° 0 mm 4 mps 682 mmHg 16%
    16:00 +34°C° 0 mm 3 mps 682 mmHg 16%
    17:00 +29°C° 0 mm 2 mps 682 mmHg 22%
    18:00 +25°C° 0 mm 1 mps 681 mmHg 28%
    19:00 +19°C° 0 mm 0 mps 681 mmHg 33%
    20:00 +21°C° 0 mm 1 mps 681 mmHg 36%
    21:00 +21°C° 0 mm 1 mps 681 mmHg 38%
    22:00 +21°C° 0 mm 1 mps 681 mmHg 40%
    23:00 +20°C° 0 mm 1 mps 681 mmHg 42%

    26 September, Thursday

    Time Temperature Precipitation Wind Pressure Humidity
    00:00 +20°C° 0 mm 1 mps 681 mmHg 43%
    01:00 +20°C° 0 mm 1 mps 681 mmHg 45%
    02:00 +20°C° 0 mm 1 mps 681 mmHg 49%
    03:00 +19°C° 0 mm 1 mps 681 mmHg 52%
    04:00 +17°C° 0 mm 0 mps 681 mmHg 56%
    05:00 +21°C° 0 mm 1 mps 682 mmHg 44%
    06:00 +23°C° 0 mm 1 mps 682 mmHg 32%
    07:00 +26°C° 0 mm 1 mps 683 mmHg 21%
    08:00 +29°C° 0 mm 1 mps 684 mmHg 17%
    09:00 +32°C° 0 mm 1 mps 684 mmHg 14%
    10:00 +35°C° 0 mm 1 mps 685 mmHg 10%
    11:00 +37°C° 0 mm 2 mps 684 mmHg 9%
    12:00 +38°C° 0 mm 3 mps 684 mmHg 8%
    13:00 +39°C° 0 mm 3 mps 684 mmHg 7%
    14:00 +39°C° 0 mm 3 mps 684 mmHg 7%
    15:00 +39°C° 0 mm 3 mps 683 mmHg 8%
    16:00 +39°C° 0 mm 3 mps 683 mmHg 8%
    17:00 +35°C° 0 mm 2 mps 682 mmHg 14%
    18:00 +29°C° 0 mm 2 mps 682 mmHg 21%
    19:00 +25°C° 0 mm 1 mps 681 mmHg 27%
    20:00 +25°C° 0 mm 1 mps 682 mmHg 23%
    21:00 +26°C° 0 mm 2 mps 682 mmHg 19%
    22:00 +26°C° 0 mm 2 mps 682 mmHg 15%
    23:00 +26°C° 0 mm 2 mps 682 mmHg 16%

    27 September, Friday

    Time Temperature Precipitation Wind Pressure Humidity
    00:00 +25°C° 0 mm 2 mps 682 mmHg 16%
    01:00 +25°C° 0 mm 2 mps 682 mmHg 17%
    02:00 +23°C° 0 mm 2 mps 682 mmHg 22%
    03:00 +22°C° 0 mm 1 mps 681 mmHg 26%
    04:00 +20°C° 0 mm 1 mps 681 mmHg 31%
    05:00 +22°C° 0 mm 1 mps 682 mmHg 27%
    06:00 +24°C° 0 mm 1 mps 683 mmHg 24%
    07:00 +26°C° 0 mm 1 mps 683 mmHg 20%
    08:00 +28°C° 0 mm 1 mps 684 mmHg 17%
    09:00 +30°C° 0 mm 1 mps 684 mmHg 15%
    10:00 +34°C° 0 mm 2 mps 684 mmHg 13%
    11:00 +35°C° 0 mm 3 mps 684 mmHg 12%
    12:00 +36°C° 0 mm 3 mps 683 mmHg 11%
    13:00 +38°C° 0 mm 4 mps 683 mmHg 10%
    14:00 +37°C° 0 mm 4 mps 683 mmHg 10%
    15:00 +37°C° 0 mm 4 mps 683 mmHg 10%
    16:00 +37°C° 0 mm 4 mps 682 mmHg 10%
    17:00 +33°C° 0 mm 3 mps 682 mmHg 14%
    18:00 +27°C° 0 mm 2 mps 681 mmHg 19%
    19:00 +23°C° 0 mm 1 mps 680 mmHg 23%
    20:00 +24°C° 0 mm 1 mps 680 mmHg 22%
    21:00 +24°C° 0 mm 2 mps 681 mmHg 22%
    22:00 +24°C° 0 mm 2 mps 681 mmHg 21%
    23:00 +25°C° 0 mm 2 mps 680 mmHg 20%
    Show more